STARLINK-11609, 63132

Orbit data source: Space-Track

STARLINK-11609, 63132 is a payload satellite owned by SpaceX/Seattle (US) in LEO that was launched on Mon, 03 Mar 2025 UTC via an FALCON 9 launch vehicle from the Air Force Eastern Test Range (AFETR). Payload-class satellites include a variety of spacecraft equipped with specific instruments for various scientific and technological missions. These include communications satellites like Starlink; space stations such as the ISS; scientific satellites like the Hubble; Earth observation satellites from companies like Planet Labs, Umbra, and HawkEye 360; GPS; miniature CubeSats for education and research; and military/defense satellites.

Loading next visibility...
Identifier
63132, 2025-043A
Orbit
LEO
Last TLE update
11 hours ago
Origin
Manufacturer
SpaceX/Seattle
Mission
Operational Commercial Communications
Bus & Motor
STARLINK V2M, Unknown motor
Mass
730 kg wet, ~700 kg dry
Launch date (UTC)
2025-03-03 (4 months ago)
Launch vehicle
FALCON 9
Launch site
Air Force Eastern Test Range (AFETR)
Object type
Payload
Rocket body
Debris
Shape & HBR
Box + 2 Pan, 29 m
Radar Cross Section
36.964 m², Large (>1 m²)

Expand to show TLE details & history

TLE from 11 hours ago
0 STARLINK-11609
1 63132U 25043A   25182.10848081  .00237538  00000-0  17932-2 0  9999
2 63132  43.0009 327.2844 0002110 285.9205  74.1430 15.70960015 19898
Epoch: 2025-07-01T02:36Z
TLE epoch observation values (Epoch: 2025-07-01T02:36:12.742Z)
Latitude
-0°
Longitude
8.82264°
Altitude
355.535 km
Speed
7.698 km/s
True Right ascension
21h 49m 08s
True Declination
0° 00' 00"
Sunlit
Object was in full shadow at epoch
Visualization orbit readout
Latitude
42.87073°
Longitude
87.88503°
Altitude
359.869 km
Speed
7.699 km/s
Apparent Right ascension
08h 06m 50s
Apparent Declination
12° 03' 15"
Sunlit
Object is in daylight
Visualization observer readout
Local Sidereal Time
01:17:21
Azimuth
72.86° E
Elevation
-1.529°
Doppler factor
1
Orbital elements
Apogee altitude
359.555 km
Perigee altitude
356.712 km
Semi-major axis
6,736.271 km
Eccentricity
0.00021
Inclination
43.0009°
RAAN
327.2844°
Arg. of periapsis
285.9205°
True anomaly
Unknown
Mean anomaly
74.143°
Eccentric anomaly
Unknown
Mean motion
3.92567 °/min
Orbital period
91.7 mins
BSTAR
0.0017932
Loading maneuver chart data...
Loading SW <> Apogee altitude chart data...
Loading historical data...
Loading historical data...
Loading historical data...
Loading historical data...
Loading historical data...
Loading historical data...
Loading historical data...

STARLINK-11609 Visibility forecast

Observer location: undefined°, undefined°

Span
Click to sort rows by Start time (UTC) header in descending order
Start Az.
Max El. time (UTC)
Max El. Az.
Max El.
End time (UTC)
End Az.
5 mins2025-07-01 15:06:22.773Z274.577° WNW2025-07-01 15:09:22.773Z15.005° NNE36.365°2025-07-01 15:11:22.773Z65.693° ENE
|